When you browse on this site, cookies collect data to enhance your experience and personalize the content and advertising you see.
Visit our Privacy Policy to learn more. By continuing to use the site, you agree to this use of cookies and data.
  • în România
  • Lista ţărilor
  • Pe 7 zile
  • Temperatura apei
  • Hartă satelitară
  • Meteo pe hartă
  • Widget-uri
  • user-avatar
    Intrare

    Meteo pe oră la Oyem

    Astăzi, 19 Iulie, Vineri

    Timp Temperatura Precipitaţii Vânt Presiune Umiditate
    00:00 +22°C° 0.7 mm 1 m/s 705 mmHg 98%
    01:00 +22°C° 0.7 mm 1 m/s 704 mmHg 98%
    02:00 +22°C° 0.3 mm 1 m/s 704 mmHg 98%
    03:00 +22°C° 0.3 mm 1 m/s 704 mmHg 99%
    04:00 +22°C° 0.3 mm 1 m/s 704 mmHg 99%
    05:00 +22°C° 0 mm 1 m/s 704 mmHg 99%
    06:00 +22°C° 0 mm 1 m/s 704 mmHg 98%
    07:00 +22°C° 0 mm 1 m/s 704 mmHg 98%
    08:00 +23°C° 0 mm 1 m/s 705 mmHg 93%
    09:00 +24°C° 0 mm 1 m/s 705 mmHg 88%
    10:00 +26°C° 0 mm 2 m/s 705 mmHg 82%
    11:00 +26°C° 0.5 mm 1 m/s 705 mmHg 81%
    12:00 +27°C° 0.5 mm 1 m/s 705 mmHg 79%
    13:00 +28°C° 0.5 mm 1 m/s 704 mmHg 78%
    14:00 +27°C° 1.6 mm 1 m/s 704 mmHg 82%
    15:00 +26°C° 1.6 mm 1 m/s 703 mmHg 87%
    16:00 +25°C° 1.6 mm 1 m/s 702 mmHg 91%
    17:00 +25°C° 1.4 mm 1 m/s 703 mmHg 93%
    18:00 +24°C° 1.4 mm 1 m/s 703 mmHg 95%
    19:00 +23°C° 1.4 mm 2 m/s 703 mmHg 96%
    20:00 +21°C° 1 mm 2 m/s 704 mmHg 97%
    21:00 +21°C° 1 mm 2 m/s 705 mmHg 97%
    22:00 +21°C° 1 mm 2 m/s 705 mmHg 98%
    23:00 +22°C° 1.6 mm 1 m/s 705 mmHg 98%

    Mâine, 20 Iulie, Sâmbătă

    Timp Temperatura Precipitaţii Vânt Presiune Umiditate
    00:00 +22°C° 1.6 mm 1 m/s 705 mmHg 98%
    01:00 +22°C° 1.6 mm 1 m/s 705 mmHg 98%
    02:00 +22°C° 3 mm 1 m/s 705 mmHg 99%
    03:00 +22°C° 3 mm 1 m/s 704 mmHg 99%
    04:00 +22°C° 3 mm 1 m/s 704 mmHg 99%
    05:00 +22°C° 3.2 mm 1 m/s 704 mmHg 99%
    06:00 +20°C° 3.2 mm 0 m/s 705 mmHg 99%
    07:00 +20°C° 3.2 mm 0 m/s 705 mmHg 99%
    08:00 +20°C° 1 mm 0 m/s 705 mmHg 98%
    09:00 +22°C° 1 mm 1 m/s 706 mmHg 97%
    10:00 +22°C° 1 mm 1 m/s 706 mmHg 97%
    11:00 +23°C° 0.4 mm 1 m/s 706 mmHg 95%
    12:00 +24°C° 0.4 mm 1 m/s 706 mmHg 93%
    13:00 +24°C° 0.4 mm 2 m/s 705 mmHg 91%
    14:00 +24°C° 0.4 mm 2 m/s 705 mmHg 90%
    15:00 +24°C° 0.4 mm 2 m/s 704 mmHg 89%
    16:00 +24°C° 0.4 mm 2 m/s 703 mmHg 88%
    17:00 +23°C° 0.1 mm 2 m/s 704 mmHg 90%
    18:00 +21°C° 0.1 mm 2 m/s 704 mmHg 91%
    19:00 +22°C° 0.1 mm 1 m/s 704 mmHg 93%
    20:00 +21°C° 0 mm 1 m/s 705 mmHg 94%
    21:00 +21°C° 0 mm 1 m/s 705 mmHg 95%
    22:00 +21°C° 0 mm 1 m/s 705 mmHg 96%
    23:00 +21°C° 0 mm 1 m/s 705 mmHg 97%

    Poimâine, 21 Iulie, Duminică

    Timp Temperatura Precipitaţii Vânt Presiune Umiditate
    00:00 +21°C° 0 mm 1 m/s 705 mmHg 97%
    01:00 +21°C° 0 mm 1 m/s 705 mmHg 98%
    02:00 +21°C° 0 mm 1 m/s 705 mmHg 97%
    03:00 +19°C° 0 mm 0 m/s 704 mmHg 97%
    04:00 +19°C° 0 mm 0 m/s 704 mmHg 96%
    05:00 +21°C° 0.1 mm 1 m/s 705 mmHg 96%
    06:00 +21°C° 0.1 mm 1 m/s 705 mmHg 96%
    07:00 +21°C° 0.1 mm 1 m/s 705 mmHg 97%
    08:00 +22°C° 0 mm 1 m/s 706 mmHg 90%
    09:00 +24°C° 0 mm 1 m/s 706 mmHg 84%
    10:00 +25°C° 0 mm 1 m/s 707 mmHg 78%
    11:00 +26°C° 0.4 mm 1 m/s 706 mmHg 77%
    12:00 +26°C° 0.4 mm 1 m/s 706 mmHg 76%
    13:00 +27°C° 0.4 mm 1 m/s 705 mmHg 76%
    14:00 +27°C° 1 mm 1 m/s 704 mmHg 76%
    15:00 +27°C° 1 mm 1 m/s 704 mmHg 77%
    16:00 +27°C° 1 mm 1 m/s 703 mmHg 78%
    17:00 +25°C° 0.6 mm 1 m/s 704 mmHg 83%
    18:00 +24°C° 0.6 mm 1 m/s 704 mmHg 89%
    19:00 +23°C° 0.6 mm 1 m/s 704 mmHg 94%
    20:00 +22°C° 0.5 mm 1 m/s 704 mmHg 95%
    21:00 +22°C° 0.5 mm 1 m/s 705 mmHg 96%
    22:00 +22°C° 0.5 mm 1 m/s 705 mmHg 97%
    23:00 +22°C° 0.1 mm 1 m/s 705 mmHg 97%

    22 Iulie, Luni

    Timp Temperatura Precipitaţii Vânt Presiune Umiditate
    00:00 +21°C° 0.1 mm 1 m/s 705 mmHg 97%
    01:00 +21°C° 0.1 mm 1 m/s 705 mmHg 98%
    02:00 +21°C° 0.2 mm 1 m/s 704 mmHg 98%
    03:00 +21°C° 0.2 mm 1 m/s 704 mmHg 98%
    04:00 +21°C° 0.2 mm 1 m/s 704 mmHg 99%
    05:00 +21°C° 0.1 mm 1 m/s 704 mmHg 99%
    06:00 +21°C° 0.1 mm 1 m/s 705 mmHg 98%
    07:00 +21°C° 0.1 mm 1 m/s 705 mmHg 98%
    08:00 +22°C° 0.1 mm 1 m/s 706 mmHg 96%
    09:00 +23°C° 0.1 mm 1 m/s 706 mmHg 94%
    10:00 +23°C° 0.1 mm 1 m/s 706 mmHg 92%
    11:00 +24°C° 0.7 mm 1 m/s 706 mmHg 88%
    12:00 +25°C° 0.7 mm 1 m/s 705 mmHg 84%
    13:00 +26°C° 0.7 mm 1 m/s 705 mmHg 81%
    14:00 +26°C° 1.6 mm 1 m/s 704 mmHg 83%
    15:00 +26°C° 1.6 mm 1 m/s 704 mmHg 86%
    16:00 +26°C° 1.6 mm 1 m/s 703 mmHg 88%
    17:00 +25°C° 2.6 mm 1 m/s 703 mmHg 90%
    18:00 +24°C° 2.6 mm 1 m/s 703 mmHg 93%
    19:00 +23°C° 2.6 mm 1 m/s 703 mmHg 95%
    20:00 +22°C° 3 mm 1 m/s 704 mmHg 96%
    21:00 +22°C° 3 mm 1 m/s 704 mmHg 96%
    22:00 +22°C° 3 mm 1 m/s 705 mmHg 97%
    23:00 +22°C° 2 mm 1 m/s 705 mmHg 97%

    23 Iulie, Marţi

    Timp Temperatura Precipitaţii Vânt Presiune Umiditate
    00:00 +22°C° 2 mm 1 m/s 704 mmHg 98%
    01:00 +21°C° 2 mm 1 m/s 704 mmHg 99%
    02:00 +21°C° 1.3 mm 1 m/s 704 mmHg 99%
    03:00 +21°C° 1.3 mm 1 m/s 704 mmHg 99%
    04:00 +21°C° 1.3 mm 1 m/s 704 mmHg 99%
    05:00 +21°C° 0 mm 1 m/s 704 mmHg 99%
    06:00 +21°C° 0 mm 1 m/s 704 mmHg 99%
    07:00 +19°C° 0 mm 0 m/s 705 mmHg 99%
    08:00 +20°C° 0 mm 0 m/s 705 mmHg 95%
    09:00 +21°C° 0 mm 0 m/s 706 mmHg 91%
    10:00 +22°C° 0 mm 0 m/s 706 mmHg 87%
    11:00 +25°C° 0.1 mm 1 m/s 706 mmHg 81%
    12:00 +26°C° 0.1 mm 1 m/s 705 mmHg 74%
    13:00 +28°C° 0.1 mm 1 m/s 705 mmHg 68%
    14:00 +27°C° 0.4 mm 1 m/s 704 mmHg 72%
    15:00 +27°C° 0.4 mm 1 m/s 704 mmHg 75%
    16:00 +27°C° 0.4 mm 1 m/s 703 mmHg 78%
    17:00 +25°C° 0.3 mm 1 m/s 703 mmHg 84%
    18:00 +24°C° 0.3 mm 1 m/s 703 mmHg 89%
    19:00 +23°C° 0.3 mm 1 m/s 704 mmHg 94%
    20:00 +22°C° 0.1 mm 1 m/s 704 mmHg 95%
    21:00 +22°C° 0.1 mm 1 m/s 704 mmHg 96%
    22:00 +22°C° 0.1 mm 1 m/s 705 mmHg 98%
    23:00 +21°C° 0 mm 1 m/s 704 mmHg 98%

    24 Iulie, Miercuri

    Timp Temperatura Precipitaţii Vânt Presiune Umiditate
    00:00 +21°C° 0 mm 1 m/s 704 mmHg 98%
    01:00 +21°C° 0 mm 1 m/s 704 mmHg 99%
    02:00 +21°C° 0 mm 1 m/s 704 mmHg 99%
    03:00 +21°C° 0 mm 1 m/s 704 mmHg 99%
    04:00 +21°C° 0 mm 1 m/s 704 mmHg 98%
    05:00 +21°C° 0 mm 1 m/s 704 mmHg 98%
    06:00 +21°C° 0 mm 1 m/s 704 mmHg 98%
    07:00 +21°C° 0 mm 1 m/s 705 mmHg 97%
    08:00 +22°C° 0 mm 1 m/s 705 mmHg 90%
    09:00 +24°C° 0 mm 1 m/s 706 mmHg 83%
    10:00 +25°C° 0 mm 2 m/s 706 mmHg 76%
    11:00 +26°C° 0 mm 2 m/s 706 mmHg 72%
    12:00 +27°C° 0 mm 2 m/s 705 mmHg 68%
    13:00 +28°C° 0 mm 2 m/s 705 mmHg 64%
    14:00 +29°C° 0 mm 1 m/s 704 mmHg 62%
    15:00 +29°C° 0 mm 1 m/s 703 mmHg 61%
    16:00 +29°C° 0 mm 1 m/s 703 mmHg 60%
    17:00 +27°C° 0 mm 1 m/s 703 mmHg 69%
    18:00 +25°C° 0 mm 1 m/s 703 mmHg 78%
    19:00 +24°C° 0 mm 1 m/s 703 mmHg 87%
    20:00 +23°C° 0 mm 1 m/s 703 mmHg 91%
    21:00 +22°C° 0 mm 1 m/s 704 mmHg 94%
    22:00 +22°C° 0 mm 1 m/s 704 mmHg 98%
    23:00 +22°C° 0 mm 1 m/s 704 mmHg 97%
    Arată mai mult